Weather History for Charleston, SC

Change the Weather History Date:

Saturday, May 4, 2013

  Actual Average (KCHS) Record (KCHS)
Temperature  
Mean Temperature 64 °F 69 °F  
Max Temperature 68 °F 81 °F 94 °F (1938)
Min Temperature 60 °F 58 °F 38 °F (1939)
Degree Days  
Heating Degree Days 1 1  
Month to date heating degree days 4  
Since 1 July heating degree days 1967  
Cooling Degree Days 0 5  
Month to date cooling degree days 20  
Year to date cooling degree days 138  
Growing Degree Days 14 (Base 50)    
Moisture  
Dew Point 59 °F    
Average Humidity 86    
Maximum Humidity 94    
Minimum Humidity 77    
Precipitation  
Precipitation 0.10 in 0.09 in 1.92 in (1998)
Month to date precipitation 0.37  
Year to date precipitation 13.66  
Sea Level Pressure  
Sea Level Pressure 29.95 in    
Wind  
Wind Speed 20 mph (NE)    
Max Wind Speed 24 mph    
Max Gust Speed 33 mph    
Visibility 5 miles    
Events Rain    
T = Trace of Precipitation, MM = Missing Value Source: NWS Daily Summary

Daily Weather History Graph

Daily Weather History Graph

Search for Another Location

Airport:

Trip Planner

Search our weather history database for the weather conditions in past years. The results will help you decide how hot, cold, wet, or windy it might be!

Date:

Astronomy

May. 04, 2013 Rise Set
Actual Time 6:29 AM EDT 8:04 PM EDT
Civil Twilight 6:03 AM EDT 8:30 PM EDT
Nautical Twilight 5:31 AM EDT 9:02 PM EDT
Astronomical Twilight 4:58 AM EDT 9:35 PM EDT
Moon 3:10 AM EDT (5/4) 3:15 PM EDT (5/4)
Length of Visible Light 14h 27m
Length of Day
13h 34m
Waning Crescent, 27% of the Moon is Illuminated
May 4
Waning Crescent
May 9
New
May 18
First Quarter
May 25
Full
May 31
Last Quarter

Hourly Weather History & Observations

Time (EDT) Temp. Dew Point Humidity Pressure Visibility Wind Dir Wind Speed Gust Speed Precip Events Conditions
12:15 AM 60.8 °F 55.4 °F 82% 30.01 in 5.0 mi NE 21.9 mph 28.8 mph 0.00 in   Haze
12:35 AM 62.6 °F 55.4 °F 77% 30.00 in 7.0 mi NE 21.9 mph 27.6 mph 0.00 in   Overcast
12:55 AM 62.6 °F 55.4 °F 77% 30.00 in 6.0 mi NE 21.9 mph 33.4 mph 0.00 in   Haze
1:15 AM 60.8 °F 55.4 °F 82% 30.00 in 2.5 mi NE 19.6 mph 29.9 mph 0.00 in   Haze
1:35 AM 60.8 °F 55.4 °F 82% 29.99 in 3.0 mi NE 18.4 mph 31.1 mph 0.00 in Rain Light Rain
1:55 AM 60.8 °F 57.2 °F 88% 29.98 in 5.0 mi NE 16.1 mph 28.8 mph 0.01 in   Overcast
2:15 AM 62.6 °F 57.2 °F 82% 29.97 in 3.0 mi NE 20.7 mph 29.9 mph 0.00 in   Overcast
2:35 AM 60.8 °F 57.2 °F 88% 29.96 in 3.0 mi NE 21.9 mph 27.6 mph 0.00 in   Light Drizzle
2:55 AM 62.6 °F 57.2 °F 82% 29.95 in 4.0 mi NE 21.9 mph 31.1 mph 0.01 in Rain Light Rain
3:15 AM 62.6 °F 57.2 °F 82% 29.95 in 4.0 mi NE 20.7 mph 29.9 mph 0.00 in Rain Light Rain
3:35 AM 60.8 °F 57.2 °F 88% 29.95 in 4.0 mi NE 20.7 mph 26.5 mph 0.00 in   Light Drizzle
3:55 AM 60.8 °F 57.2 °F 88% 29.95 in 5.0 mi NE 20.7 mph 32.2 mph 0.00 in   Light Drizzle
4:15 AM 60.8 °F 57.2 °F 88% 29.94 in 4.0 mi NE 21.9 mph 29.9 mph 0.01 in Rain Light Rain
4:35 AM 60.8 °F 57.2 °F 88% 29.94 in 4.0 mi NE 17.3 mph 33.4 mph 0.01 in Rain Light Rain
4:55 AM 60.8 °F 57.2 °F 88% 29.94 in 4.0 mi NE 17.3 mph 25.3 mph 0.01 in Rain Light Rain
5:15 AM 60.8 °F 57.2 °F 88% 29.95 in 5.0 mi NE 20.7 mph 25.3 mph 0.00 in   Light Drizzle
5:35 AM 60.8 °F 57.2 °F 88% 29.95 in 5.0 mi NE 17.3 mph 32.2 mph 0.00 in   Mostly Cloudy
5:55 AM 60.8 °F 57.2 °F 88% 29.96 in 6.0 mi NE 19.6 mph 27.6 mph 0.00 in   Mostly Cloudy
6:15 AM 60.8 °F 55.4 °F 82% 29.96 in 7.0 mi NE 20.7 mph 27.6 mph 0.00 in   Mostly Cloudy
6:35 AM 60.8 °F 55.4 °F 82% 29.96 in 6.0 mi NE 24.2 mph 31.1 mph 0.00 in   Mostly Cloudy
6:55 AM 60.8 °F 55.4 °F 82% 29.97 in 5.0 mi NE 24.2 mph 31.1 mph 0.00 in   Overcast
7:15 AM 60.8 °F 55.4 °F 82% 29.98 in 5.0 mi NE 19.6 mph 31.1 mph 0.00 in   Mostly Cloudy
7:35 AM 60.8 °F 55.4 °F 82% 29.98 in 4.0 mi NE 20.7 mph 32.2 mph 0.00 in   Light Drizzle
7:55 AM 60.8 °F 55.4 °F 82% 29.98 in 4.0 mi NE 19.6 mph 29.9 mph 0.00 in   Overcast
8:15 AM 60.8 °F 55.4 °F 82% 29.97 in 5.0 mi NE 19.6 mph 28.8 mph 0.00 in   Overcast
8:35 AM 60.8 °F 57.2 °F 88% 29.97 in 6.0 mi NE 19.6 mph 28.8 mph 0.00 in   Mostly Cloudy
8:55 AM 60.8 °F 57.2 °F 88% 29.97 in 5.0 mi NE 21.9 mph 28.8 mph 0.00 in   Overcast
9:15 AM 60.8 °F 57.2 °F 88% 29.98 in 5.0 mi NE 18.4 mph 27.6 mph 0.00 in   Mostly Cloudy
9:35 AM 62.6 °F 57.2 °F 82% 29.98 in 7.0 mi NE 19.6 mph 32.2 mph 0.00 in   Overcast
9:55 AM 60.8 °F 57.2 °F 88% 29.98 in 5.0 mi NE 21.9 mph 28.8 mph 0.00 in   Mostly Cloudy
10:15 AM 62.6 °F 57.2 °F 82% 29.98 in 8.0 mi NE 18.4 mph - 0.00 in   Overcast
10:35 AM 62.6 °F 57.2 °F 82% 29.99 in 8.0 mi NE 16.1 mph 26.5 mph 0.00 in   Overcast
10:55 AM 62.6 °F 57.2 °F 82% 29.99 in 8.0 mi NE 17.3 mph 27.6 mph 0.00 in   Overcast
11:15 AM 64.4 °F 57.2 °F 77% 29.99 in 6.0 mi NE 18.4 mph 26.5 mph 0.00 in   Haze
11:35 AM 64.4 °F 59.0 °F 83% 29.98 in 6.0 mi ENE 17.3 mph 29.9 mph 0.00 in   Haze
11:55 AM 66.2 °F 59.0 °F 78% 29.97 in 7.0 mi NE 20.7 mph 28.8 mph 0.00 in   Overcast
12:15 PM 66.2 °F 59.0 °F 78% 29.96 in 7.0 mi NE 23.0 mph 32.2 mph 0.00 in   Overcast
12:35 PM 68.0 °F 60.8 °F 78% 29.96 in 6.0 mi ENE 18.4 mph 29.9 mph 0.00 in   Haze
12:55 PM 66.2 °F 59.0 °F 78% 29.95 in 5.0 mi ENE 21.9 mph 29.9 mph 0.00 in   Haze
1:15 PM 64.4 °F 59.0 °F 83% 29.96 in 5.0 mi ENE 20.7 mph 28.8 mph 0.00 in   Haze
1:35 PM 64.4 °F 60.8 °F 88% 29.95 in 3.0 mi ENE 20.7 mph 28.8 mph 0.00 in   Overcast
1:55 PM 64.4 °F 60.8 °F 88% 29.95 in 4.0 mi NE 23.0 mph 29.9 mph 0.00 in   Light Drizzle
2:15 PM 64.4 °F 60.8 °F 88% 29.95 in 3.0 mi NE 21.9 mph 28.8 mph 0.00 in   Haze
2:35 PM 64.4 °F 60.8 °F 88% 29.94 in 3.0 mi NE 21.9 mph 29.9 mph 0.00 in Rain Light Rain
2:55 PM 64.4 °F 60.8 °F 88% 29.94 in 3.0 mi ENE 15.0 mph 27.6 mph 0.00 in   Light Drizzle
3:15 PM 64.4 °F 60.8 °F 88% 29.93 in 3.0 mi NE 19.6 mph 25.3 mph 0.00 in   Overcast
3:35 PM 64.4 °F 60.8 °F 88% 29.93 in 5.0 mi NE 19.6 mph 29.9 mph 0.00 in   Haze
3:55 PM 66.2 °F 60.8 °F 83% 29.92 in 6.0 mi NE 23.0 mph 32.2 mph 0.00 in   Haze
4:15 PM 66.2 °F 60.8 °F 83% 29.92 in 5.0 mi NE 21.9 mph 28.8 mph 0.00 in   Light Drizzle
4:35 PM 66.2 °F 60.8 °F 83% 29.92 in 5.0 mi NE 19.6 mph 31.1 mph 0.00 in   Haze
4:55 PM 64.4 °F 60.8 °F 88% 29.91 in 6.0 mi NE 20.7 mph 32.2 mph 0.00 in   Haze
5:15 PM 66.2 °F 60.8 °F 83% 29.91 in 5.0 mi ENE 24.2 mph 32.2 mph 0.00 in   Haze
5:35 PM 66.2 °F 60.8 °F 83% 29.90 in 5.0 mi NE 24.2 mph 31.1 mph 0.00 in   Haze
5:55 PM 66.2 °F 60.8 °F 83% 29.90 in 5.0 mi NE 24.2 mph 29.9 mph 0.00 in   Haze
6:15 PM 64.4 °F 60.8 °F 88% 29.91 in 5.0 mi NE 17.3 mph 26.5 mph 0.00 in   Haze
6:35 PM 64.4 °F 60.8 °F 88% 29.91 in 5.0 mi ENE 17.3 mph 29.9 mph 0.00 in   Haze
6:55 PM 64.4 °F 60.8 °F 88% 29.91 in 5.0 mi NE 20.7 mph 28.8 mph 0.00 in   Haze
7:15 PM 64.4 °F 60.8 °F 88% 29.91 in 5.0 mi NE 17.3 mph 24.2 mph 0.00 in   Haze
7:35 PM 64.4 °F 60.8 °F 88% 29.93 in 5.0 mi NE 18.4 mph 25.3 mph 0.00 in   Haze
7:55 PM 64.4 °F 60.8 °F 88% 29.93 in 5.0 mi ENE 18.4 mph 26.5 mph 0.00 in   Haze
8:15 PM 64.4 °F 60.8 °F 88% 29.93 in 6.0 mi ENE 17.3 mph 24.2 mph 0.00 in   Overcast
8:35 PM 64.4 °F 60.8 °F 88% 29.91 in 6.0 mi NE 23.0 mph - 0.00 in   Overcast
8:55 PM 64.4 °F 60.8 °F 88% 29.90 in 4.0 mi ENE 18.4 mph 27.6 mph 0.01 in   Overcast
9:15 PM 62.6 °F 60.8 °F 94% 29.91 in 3.0 mi ENE 18.4 mph 26.5 mph 0.02 in Rain Rain
9:35 PM 62.6 °F 60.8 °F 94% 29.91 in 3.0 mi ENE 21.9 mph 29.9 mph 0.04 in Rain Light Rain
9:55 PM 62.6 °F 60.8 °F 94% 29.92 in 5.0 mi ENE 19.6 mph 31.1 mph 0.04 in   Overcast
10:15 PM 62.6 °F 60.8 °F 94% 29.93 in 5.0 mi ENE 17.3 mph 24.2 mph 0.00 in   Overcast
10:35 PM 62.6 °F 60.8 °F 94% 29.92 in 5.0 mi ENE 19.6 mph 25.3 mph 0.00 in   Mostly Cloudy
10:55 PM 62.6 °F 60.8 °F 94% 29.92 in 5.0 mi ENE 18.4 mph 24.2 mph 0.01 in Rain Light Rain
11:15 PM 62.6 °F 60.8 °F 94% 29.92 in 4.0 mi ENE 18.4 mph 24.2 mph 0.01 in Rain Light Rain
11:35 PM 62.6 °F 60.8 °F 94% 29.91 in 4.0 mi ENE 18.4 mph 23.0 mph 0.01 in   Mostly Cloudy
11:55 PM 64.4 °F 62.6 °F 94% 29.90 in 4.0 mi ENE 19.6 mph 26.5 mph 0.01 in   Mostly Cloudy